sat.trackr.live / text

‹ back to catalog

ST-2

NORAD 37606 · 2011-022B

PAYLOAD ACTIVE UNKNOWN

§ Identity

Operator
Country
STCT
Launch date
2011-05-20
Launch site
FRGUI
Launch vehicle
Mass (kg)
RCS (m²)
5.62

Purposes: comms

External: N2YO · Heavens-Above · Gunter

§ Orbital elements

Epoch: 2026-09-19T12:15:26.526816Z

Period
1,436.07 min
Inclination
0.0194°
Eccentricity
0.0001662
Mean motion
1.00273665 rev/d
Perigee alt
35,779.1 km
Apogee alt
35,793.1 km
Semi-major
42,164.2 km
B*
0.0000e+0
RAAN
173.8059°
Arg perigee
5.0313°
Mean anomaly
91.4656°
Rev number
5,622

§ Raw data

ST-21 37606U 11022B   26262.51072369 -.00000216  00000+0  00000+0 0  99972 37606   0.0194 173.8059 0001662   5.0313  91.4656  1.00273665 56224

JSON: /api/v1/satellites/37606 · /tle

For live sub-satellite position, see the globe view (requires WebGL).

§ Visibility from observer

Set your observer location to see the next 7 days of passes ≥ 10°. The values pass through the URL so the page stays shareable.

No JS? Fill the form by hand. The geolocation button needs JavaScript.